Date String (YYYY-MM-DD hh:mm:ss) UTC,Instrument flags,Ambient pressure (hPa),Sample flow (lpm),Bypass flow (lpm),Sample temperature (°C),Ambient temperature (°C),ASC tube jacket temperature (°C),LED temperature (°C),Box temperature (°C),Sample RH (%),Span deviation,Mass concentration (μg/m³),Mass concentration (μg/m³),Mass concentration (μg/m³)
DateTimeUTC,F1_M11,P_M11,Q1_M11,Q2_M11,T1_M11,T2_M11,T3_M11,T4_M11,T5_M11,U1_M11,ZSPAN_M11,X0_M11,X2_M11,X1_M11
2023-04-12 06:00:00,,0828.1,5.00,0.00,30.3,28.6,00.0,38.7,31.7,06.1,0000.0,0004.62,0002.54,0001.63
2023-04-12 06:01:00,,0828.0,5.01,0.00,30.3,28.6,00.0,38.7,31.7,06.1,0000.0,0004.70,0002.55,0001.62
2023-04-12 06:02:00,,0828.1,5.00,0.00,30.3,28.6,00.0,38.7,31.7,06.1,0000.0,0004.52,0002.51,0001.63
2023-04-12 06:03:00,,0828.1,5.00,0.00,30.3,28.6,00.0,38.7,31.7,06.2,0000.0,0004.63,0002.55,0001.64
2023-04-12 06:04:00,,0828.1,5.01,0.00,30.3,28.5,00.0,38.7,31.7,06.1,0000.0,0004.96,0002.57,0001.65
2023-04-12 06:05:00,,0828.1,5.00,0.00,30.3,28.5,00.0,38.7,31.7,06.1,0000.0,0005.16,0002.56,0001.64
2023-04-12 06:06:00,,0828.1,5.00,0.00,30.3,28.5,00.0,38.7,31.7,06.2,0000.0,0005.20,0002.58,0001.64
2023-04-12 06:07:00,,0828.0,4.99,0.00,30.2,28.5,00.0,38.7,31.7,06.2,0000.0,0005.14,0002.56,0001.64
2023-04-12 06:08:00,,0828.1,5.00,0.00,30.2,28.5,00.0,38.7,31.8,06.2,0000.0,0005.32,0002.62,0001.65
2023-04-12 06:09:00,,0828.0,4.99,0.00,30.2,28.5,00.0,38.7,31.7,06.2,0000.0,0005.41,0002.67,0001.66
2023-04-12 06:10:00,,0828.1,4.99,0.00,30.2,28.5,00.0,38.7,31.7,06.2,0000.0,0005.64,0002.75,0001.68
2023-04-12 06:11:00,,0828.0,5.00,0.00,30.2,28.5,00.0,38.7,31.7,06.2,0000.0,0005.70,0002.79,0001.68
2023-04-12 06:12:00,,0827.9,4.99,0.00,30.2,28.5,00.0,38.6,31.7,06.2,0000.0,0005.72,0002.80,0001.68
2023-04-12 06:13:00,,0827.9,5.00,0.00,30.2,28.5,00.0,38.6,31.7,06.3,0000.0,0006.23,0002.90,0001.70
2023-04-12 06:14:00,,0827.8,5.01,0.00,30.2,28.5,00.0,38.6,31.7,06.3,0000.0,0006.30,0002.93,0001.72
2023-04-12 06:15:00,,0827.8,5.01,0.00,30.2,28.5,00.0,38.6,31.7,06.3,0000.0,0006.01,0002.90,0001.73
2023-04-12 06:16:00,,0827.9,5.01,0.00,30.2,28.5,00.0,38.6,31.7,06.3,0000.0,0005.88,0002.97,0001.73
2023-04-12 06:17:00,,0827.9,5.00,0.00,30.2,28.5,00.0,38.6,31.7,06.3,0000.0,0006.14,0003.01,0001.74
2023-04-12 06:18:00,,0827.8,5.00,0.00,30.2,28.5,00.0,38.6,31.7,06.3,0000.0,0006.85,0003.09,0001.76
2023-04-12 06:19:00,,0827.8,4.99,0.00,30.2,28.5,00.0,38.6,31.7,06.3,0000.0,0007.19,0003.10,0001.77
2023-04-12 06:20:00,,0827.9,4.99,0.00,30.2,28.5,00.0,38.6,31.7,06.4,0000.0,0007.15,0003.09,0001.77
2023-04-12 06:21:00,,0827.9,5.01,0.00,30.2,28.5,00.0,38.6,31.7,06.4,0000.0,0006.96,0003.04,0001.77
2023-04-12 06:22:00,,0827.9,5.00,0.00,30.2,28.5,00.0,38.6,31.7,06.4,0000.0,0007.09,0003.06,0001.78
2023-04-12 06:23:00,,0827.8,5.00,0.00,30.2,28.5,00.0,38.6,31.7,06.4,0000.0,0007.31,0003.11,0001.80
2023-04-12 06:24:00,,0827.8,5.01,0.00,30.2,28.5,00.0,38.6,31.7,06.4,0000.0,0007.24,0003.11,0001.81
2023-04-12 06:25:00,,0827.8,5.00,0.00,30.2,28.5,00.0,38.6,31.7,06.4,0000.0,0007.30,0003.09,0001.80
2023-04-12 06:26:00,,0827.9,5.00,0.00,30.2,28.5,00.0,38.6,31.7,06.5,0000.0,0007.31,0003.07,0001.79
2023-04-12 06:27:00,,0827.9,5.00,0.00,30.2,28.5,00.0,38.6,31.7,06.5,0000.0,0007.25,0003.01,0001.79
2023-04-12 06:28:00,,0827.9,5.01,0.00,30.2,28.5,00.0,38.6,31.7,06.5,0000.0,0007.07,0002.96,0001.79
2023-04-12 06:29:00,,0827.8,5.01,0.00,30.2,28.5,00.0,38.6,31.7,06.5,0000.0,0006.61,0002.95,0001.79
2023-04-12 06:30:00,,0827.8,5.00,0.00,30.2,28.5,00.0,38.6,31.6,06.5,0000.0,0006.28,0002.95,0001.79
2023-04-12 06:31:00,,0827.9,4.99,0.00,30.2,28.5,00.0,38.6,31.7,06.5,0000.0,0006.62,0002.98,0001.79
2023-04-12 06:32:00,,0827.8,5.01,0.00,30.2,28.5,00.0,38.6,31.7,06.5,0000.0,0007.01,0003.04,0001.80
2023-04-12 06:33:00,,0827.8,5.00,0.00,30.2,28.5,00.0,38.6,31.7,06.5,0000.0,0006.89,0003.05,0001.79
2023-04-12 06:34:00,,0827.8,5.01,0.00,30.2,28.5,00.0,38.6,31.7,06.5,0000.0,0006.82,0003.03,0001.78
2023-04-12 06:35:00,,0827.8,4.99,0.00,30.2,28.5,00.0,38.6,31.6,06.6,0000.0,0006.76,0002.99,0001.78
2023-04-12 06:36:00,,0827.8,5.00,0.00,30.2,28.5,00.0,38.6,31.6,06.5,0000.0,0007.35,0002.98,0001.78
2023-04-12 06:37:00,,0827.8,5.00,0.00,30.2,28.4,00.0,38.6,31.6,06.6,0000.0,0007.27,0002.96,0001.78
2023-04-12 06:38:00,,0827.8,5.00,0.00,30.2,28.4,00.0,38.6,31.7,06.5,0000.0,0007.37,0002.94,0001.78
2023-04-12 06:39:00,,0827.9,5.01,0.00,30.2,28.4,00.0,38.6,31.6,06.5,0000.0,0007.37,0002.92,0001.78
2023-04-12 06:40:00,,0827.9,5.00,0.00,30.2,28.4,00.0,38.6,31.6,06.5,0000.0,0007.22,0002.88,0001.78
2023-04-12 06:41:00,,0828.0,5.00,0.00,30.1,28.4,00.0,38.6,31.6,06.5,0000.0,0007.03,0002.83,0001.76
2023-04-12 06:42:00,,0828.0,5.00,0.00,30.1,28.4,00.0,38.6,31.6,06.5,0000.0,0006.66,0002.79,0001.75
2023-04-12 06:43:00,,0827.9,5.00,0.00,30.1,28.4,00.0,38.5,31.6,06.6,0000.0,0006.48,0002.81,0001.74
2023-04-12 06:44:00,,0827.9,5.00,0.00,30.1,28.4,00.0,38.5,31.6,06.5,0000.0,0006.47,0002.78,0001.73
2023-04-12 06:45:00,,0827.9,4.99,0.00,30.1,28.4,00.0,38.5,31.5,06.4,0000.0,0006.33,0002.74,0001.72
2023-04-12 06:46:00,,0827.9,5.00,0.00,30.1,28.3,00.0,38.5,31.6,06.4,0000.0,0006.88,0002.76,0001.71
2023-04-12 06:47:00,,0827.9,5.00,0.00,30.1,28.3,00.0,38.5,31.6,06.5,0000.0,0006.32,0002.77,0001.71
2023-04-12 06:48:00,,0827.8,4.99,0.00,30.1,28.3,00.0,38.5,31.5,06.5,0000.0,0006.38,0002.78,0001.73
2023-04-12 06:49:00,,0827.9,5.00,0.00,30.1,28.3,00.0,38.5,31.6,06.6,0000.0,0006.42,0002.87,0001.74
2023-04-12 06:50:00,,0827.8,5.00,0.00,30.1,28.3,00.0,38.5,31.6,06.6,0000.0,0006.28,0002.91,0001.75
2023-04-12 06:51:00,,0827.8,5.00,0.00,30.1,28.3,00.0,38.5,31.6,06.6,0000.0,0006.23,0002.89,0001.76
2023-04-12 06:52:00,,0827.8,5.00,0.00,30.1,28.3,00.0,38.5,31.6,06.5,0000.0,0006.38,0002.93,0001.77
2023-04-12 06:53:00,,0827.8,5.01,0.00,30.1,28.3,00.0,38.5,31.5,06.5,0000.0,0007.72,0002.96,0001.78
2023-04-12 06:54:00,,0827.8,5.00,0.00,30.1,28.3,00.0,38.5,31.5,06.5,0000.0,0007.93,0002.93,0001.77
2023-04-12 06:55:00,,0827.8,4.99,0.00,30.1,28.4,00.0,38.5,31.5,06.5,0000.0,0008.02,0002.94,0001.79
2023-04-12 06:56:00,,0827.8,5.00,0.00,30.1,28.4,00.0,38.5,31.5,06.5,0000.0,0008.01,0002.93,0001.82
2023-04-12 06:57:00,,0827.8,5.00,0.00,30.1,28.4,00.0,38.5,31.5,06.5,0000.0,0007.90,0002.98,0001.84
2023-04-12 06:58:00,,0827.8,5.00,0.00,30.1,28.4,00.0,38.5,31.5,06.5,0000.0,0007.99,0002.99,0001.84
2023-04-12 06:59:00,,0827.8,5.00,0.00,30.1,28.4,00.0,38.5,31.5,06.5,0000.0,0008.73,0003.02,0001.83
